SM4IVE-5 Weather Reports


time (UTC)temp
C
wind
direction
speed
KPH
gust
KPH
rain 1hr
cm
rain 24hr
cm
rain mn
cm
humidity
%
barometer
mb
20260507084830 13 114 4.8 9.7 0.00 0.00 0.00 54 1015.2
20260507084351 12 161 1.6 8.0 0.00 0.00 0.00 55 1015.2
20260507083830 12 313 4.8 8.0 0.00 0.00 0.00 52 1015.2
20260507083331 12 53 3.2 9.7 0.00 0.00 0.00 51 1015.3
20260507082831 12 52 4.8 9.7 0.00 0.00 0.00 53 1015.2
20260507082332 12 360 3.2 6.4 0.00 0.00 0.00 53 1015.2
20260507081832 12 355 3.2 6.4 0.00 0.00 0.00 55 1015.2
20260507081340 12 349 1.6 4.8 0.00 0.00 0.00 54 1015.2
20260507080828 11 346 0.0 4.8 0.00 0.00 0.00 58 1015.2
20260507080330 11 345 1.6 4.8 0.00 0.00 0.00 56 1015.2
20260507075829 11 292 3.2 6.4 0.00 0.00 0.00 55 1015.2
20260507075331 11 292 3.2 6.4 0.00 0.00 0.00 55 1015.2
20260507074830 10 249 1.6 4.8 0.00 0.00 0.00 57 1015.2
20260507074351 10 138 1.6 4.8 0.00 0.00 0.00 57 1015.2
20260507073831 9 138 1.6 11.3 0.00 0.00 0.00 63 1015.2
20260507073339 8 136 4.8 11.3 0.00 0.00 0.00 65 1015.1
20260507072828 8 123 4.8 11.3 0.00 0.00 0.00 67 1015.1
20260507072329 7 150 3.2 11.3 0.00 0.00 0.00 70 1015.1
20260507071830 6 168 3.2 8.0 0.00 0.00 0.00 72 1015.1
20260507071351 6 168 3.2 4.8 0.00 0.00 0.00 75 1015.2
20260507070837 6 287 0.0 3.2 0.00 0.00 0.00 78 1015.1
20260507070325 6 288 0.0 0.0 0.00 0.00 0.00 79 1015.2
20260507065833 6 288 0.0 1.6 0.00 0.00 0.00 80 1015.1
20260507065339 6 288 0.0 1.6 0.00 0.00 0.00 81 1015.1
20260507064828 5 288 0.0 1.6 0.00 0.00 0.00 81 1015.0
20260507064329 5 288 1.6 1.6 0.00 0.00 0.00 84 1015.0
20260507063830 5 288 0.0 3.2 0.00 0.00 0.00 83 1015.0
20260507063351 5 288 1.6 3.2 0.00 0.00 0.00 82 1014.9
20260507062831 5 288 1.6 3.2 0.00 0.00 0.00 82 1015.0
20260507062331 5 288 0.0 0.0 0.00 0.00 0.00 84 1014.9
20260507061831 5 288 0.0 0.0 0.00 0.00 0.00 83 1014.9
20260507061331 5 288 0.0 0.0 0.00 0.00 0.00 82 1014.8
20260507060832 5 288 0.0 0.0 0.00 0.00 0.00 82 1014.8
20260507060400 5 288 0.0 0.0 0.00 0.00 0.00 81 1014.7
20260507055829 5 288 0.0 0.0 0.00 0.00 0.00 79 1014.7
20260507055329 6 288 0.0 1.6 0.00 0.00 0.00 78 1014.7
20260507054829 6 288 0.0 1.6 0.00 0.00 0.00 78 1014.7
20260507054346 6 288 1.6 3.2 0.00 0.00 0.00 76 1014.7
20260507053826 6 288 1.6 3.2 0.00 0.00 0.00 75 1014.6
20260507053326 6 288 1.6 3.2 0.00 0.00 0.00 74 1014.5
20260507052827 6 286 0.0 3.2 0.00 0.00 0.00 74 1014.5
20260507052347 6 286 3.2 3.2 0.00 0.00 0.00 73 1014.4
20260507051848 6 286 0.0 3.2 0.00 0.00 0.00 71 1014.4
20260507051329 5 286 1.6 3.2 0.00 0.00 0.00 72 1014.4
20260507050849 5 286 0.0 3.2 0.00 0.00 0.00 74 1014.3
20260507050329 5 287 1.6 3.2 0.00 0.00 0.00 76 1014.3
20260507045835 5 287 0.0 0.0 0.00 0.00 0.00 78 1014.2
20260507045325 4 287 0.0 1.6 0.00 0.00 0.00 79 1014.3
20260507044826 4 287 0.0 1.6 0.00 0.00 0.00 82 1014.3
20260507044326 4 287 0.0 3.2 0.00 0.00 0.00 80 1014.3
20260507043826 3 287 1.6 3.2 0.00 0.00 0.00 79 1014.2
20260507043327 3 287 0.0 3.2 0.00 0.00 0.00 78 1014.2
20260507042835 3 287 1.6 3.2 0.00 0.00 0.00 80 1014.2
20260507042325 3 287 0.0 1.6 0.00 0.00 0.00 80 1014.1
20260507041825 3 287 0.0 3.2 0.00 0.00 0.00 82 1014.0
20260507041331 3 287 0.0 3.2 0.00 0.00 0.00 82 1014.1
20260507040840 2 160 1.6 3.2 0.00 0.00 0.00 82 1014.0
20260507040328 2 160 1.6 3.2 0.00 0.00 0.00 80 1013.9
20260507035836 2 160 0.0 0.0 0.00 0.00 0.00 82 1013.9
20260507035324 2 160 0.0 0.0 0.00 0.00 0.00 80 1013.8
20260507034824 2 160 0.0 0.0 0.00 0.00 0.00 80 1013.7
20260507034346 2 160 0.0 0.0 0.00 0.00 0.00 80 1013.8
20260507033826 2 160 0.0 0.0 0.00 0.00 0.00 81 1013.7
20260507033325 2 160 0.0 0.0 0.00 0.00 0.00 81 1013.8
20260507032826 2 160 0.0 0.0 0.00 0.00 0.00 82 1013.7
20260507032335 2 160 0.0 0.0 0.00 0.00 0.00 80 1013.8
20260507031825 2 160 0.0 0.0 0.00 0.00 0.00 80 1013.8
20260507031346 2 160 0.0 0.0 0.00 0.00 0.00 78 1013.7
20260507030826 2 160 0.0 0.0 0.00 0.00 0.00 78 1013.8
20260507030335 2 160 0.0 0.0 0.00 0.00 0.00 77 1013.8
20260507025824 2 160 0.0 0.0 0.00 0.00 0.00 78 1013.8
20260507025326 2 160 0.0 0.0 0.00 0.00 0.00 77 1013.8
20260507024827 2 160 0.0 0.0 0.00 0.00 0.00 76 1013.8
20260507024328 3 160 0.0 0.0 0.00 0.00 0.00 75 1013.8
20260507023849 3 160 0.0 0.0 0.00 0.00 0.00 74 1013.8
20260507023349 3 160 0.0 0.0 0.00 0.00 0.00 72 1013.8
20260507022828 3 160 0.0 4.8 0.00 0.00 0.00 72 1013.8
20260507022349 3 160 1.6 8.0 0.00 0.00 0.00 71 1013.8
20260507021829 3 180 3.2 9.7 0.00 0.00 0.00 69 1013.7
20260507021350 3 195 1.6 9.7 0.00 0.00 0.00 69 1013.7
20260507020830 3 196 0.0 3.2 0.00 0.00 0.00 71 1013.7
20260507020331 3 196 1.6 3.2 0.00 0.00 0.00 71 1013.7
20260507015831 3 196 1.6 3.2 0.00 0.00 0.00 69 1013.7
20260507015352 3 196 0.0 1.6 0.00 0.00 0.00 68 1013.7
20260507014831 4 196 0.0 1.6 0.00 0.00 0.00 66 1013.6
20260507014329 4 196 1.6 3.2 0.00 0.00 0.00 64 1013.6
20260507013839 4 196 0.0 3.2 0.00 0.00 0.00 63 1013.7
20260507013328 5 196 0.0 4.8 0.00 0.00 0.00 62 1013.6
20260507012829 5 259 1.6 8.0 0.00 0.00 0.00 62 1013.5
20260507012330 5 200 1.6 14.5 0.00 0.00 0.00 61 1013.5
20260507011830 5 176 4.8 14.5 0.00 0.00 0.00 61 1013.3
20260507011331 5 125 4.8 14.5 0.00 0.00 0.00 61 1013.3
20260507010832 5 186 6.4 22.5 0.00 0.00 0.00 61 1013.3
20260507010330 5 192 4.8 22.5 0.00 0.00 0.00 60 1013.3
20260507005850 5 210 8.0 17.7 0.00 0.00 0.00 60 1013.3
20260507005350 5 182 6.4 14.5 0.00 0.00 0.00 60 1013.3
20260507004830 5 148 6.4 16.1 0.00 0.00 0.00 60 1013.2
20260507004350 5 156 8.0 16.1 0.00 0.00 0.00 60 1013.2
20260507003825 5 184 6.4 14.5 0.00 0.00 0.00 59 1013.3
20260507003325 5 175 6.4 17.7 0.00 0.00 0.00 59 1013.3
20260507002853 5 188 8.0 17.7 0.00 0.00 0.00 59 1013.3
20260507002341 5 184 8.0 14.5 0.00 0.00 0.00 58 1013.3
20260507001829 5 142 6.4 17.7 0.00 0.00 0.00 58 1013.2
20260507001329 5 216 8.0 16.1 0.00 0.00 0.00 58 1013.3
20260507000849 5 169 6.4 17.7 0.00 0.00 0.00 58 1013.3
20260507000328 5 198 6.4 17.7 0.00 0.00 0.00 58 1013.2
20260506235829 5 220 4.8 17.7 0.00 0.00 0.00 58 1013.3
20260506235328 5 167 4.8 20.9 0.00 0.00 0.00 59 1013.2
20260506234829 5 149 8.0 16.1 0.00 0.00 0.00 59 1013.2
20260506234337 5 154 8.0 12.9 0.00 0.00 0.00 58 1013.2
20260506233825 5 180 6.4 12.9 0.00 0.00 0.00 58 1013.3
20260506233335 5 217 6.4 16.1 0.00 0.00 0.00 58 1013.3
20260506232824 5 186 8.0 17.7 0.00 0.00 0.00 58 1013.3
20260506232330 5 188 8.0 17.7 0.00 0.00 0.00 58 1013.3
20260506231831 5 194 6.4 12.9 0.00 0.00 0.00 59 1013.3
20260506231330 5 154 8.0 16.1 0.00 0.00 0.00 59 1013.2
20260506230830 5 171 9.7 16.1 0.00 0.00 0.00 58 1013.2
20260506230330 5 155 11.3 22.5 0.00 0.00 0.00 58 1013.2
20260506225830 5 155 9.7 22.5 0.00 0.00 0.00 58 1013.3
20260506225352 5 177 8.0 17.7 0.00 0.00 0.00 58 1013.2
20260506224851 5 187 8.0 16.1 0.00 0.00 0.00 58 1013.2
20260506224350 6 166 8.0 17.7 0.00 0.00 0.00 57 1013.2
20260506223830 6 159 8.0 17.7 0.00 0.00 0.00 56 1013.2
20260506223339 6 191 8.0 27.4 0.00 0.00 0.00 56 1013.1
20260506222828 6 184 6.4 27.4 0.00 0.00 0.00 56 1013.1
20260506222329 6 125 8.0 17.7 0.00 0.00 0.00 56 1013.1
20260506221829 6 200 8.0 16.1 0.00 0.00 0.00 55 1013.1
20260506221328 6 188 6.4 19.3 0.00 0.00 0.00 55 1013.1
20260506220837 6 147 8.0 19.3 0.00 0.00 0.00 55 1013.1
20260506220325 6 161 8.0 16.1 0.00 0.00 0.00 54 1013.1
20260506215853 6 180 6.4 19.3 0.00 0.00 0.00 54 1013.0
20260506215333 6 188 6.4 16.1 0.00 0.00 0.00 53 1013.0
20260506214901 6 171 9.7 19.3 0.00 0.00 0.00 53 1013.0
20260506214328 6 195 9.7 19.3 0.00 0.00 0.00 52 1013.0
20260506213857 6 149 8.0 16.1 0.00 0.00 0.00 53 1012.9
20260506213325 6 204 9.7 16.1 0.00 0.00 0.00 52 1012.9
20260506212853 6 130 8.0 12.9 0.00 0.00 0.00 51 1012.9
20260506212353 6 190 8.0 19.3 0.00 0.00 0.00 51 1012.9
20260506211852 7 172 8.0 19.3 0.00 0.00 0.00 50 1012.8
20260506211332 7 176 8.0 16.1 0.00 0.00 0.00 50 1012.8
20260506210827 7 160 9.7 16.1 0.00 0.00 0.00 50 1012.7
20260506210336 7 199 6.4 16.1 0.00 0.00 0.00 50 1012.7
20260506205829 7 173 6.4 16.1 0.00 0.00 0.00 49 1012.7
20260506205330 7 182 8.0 16.1 0.00 0.00 0.00 49 1012.8
20260506204831 7 153 6.4 17.7 0.00 0.00 0.00 50 1012.8
20260506204327 7 150 8.0 22.5 0.00 0.00 0.00 49 1012.7
20260506203856 7 211 6.4 22.5 0.00 0.00 0.00 48 1012.7
20260506203343 7 172 6.4 16.1 0.00 0.00 0.00 49 1012.6
20260506202832 7 198 6.4 20.9 0.00 0.00 0.00 48 1012.7
20260506202324 7 186 6.4 22.5 0.00 0.00 0.00 47 1012.6
20260506201849 7 176 8.0 14.5 0.00 0.00 0.00 47 1012.6
20260506201335 7 171 6.4 12.9 0.00 0.00 0.00 47 1012.6
20260506200828 7 175 6.4 14.5 0.00 0.00 0.00 46 1012.6
20260506200329 7 164 6.4 16.1 0.00 0.00 0.00 46 1012.6
20260506195829 8 160 8.0 16.1 0.00 0.00 0.00 46 1012.5
20260506195326 8 183 6.4 17.7 0.00 0.00 0.00 46 1012.4
20260506194825 8 183 6.4 17.7 0.00 0.00 0.00 45 1012.5
20260506194326 8 157 6.4 14.5 0.00 0.00 0.00 45 1012.5
20260506193827 8 159 6.4 16.1 0.00 0.00 0.00 45 1012.5
20260506193336 8 163 6.4 16.1 0.00 0.00 0.00 44 1012.5
20260506192828 8 195 9.7 14.5 0.00 0.00 0.00 44 1012.5
20260506192345 8 140 6.4 16.1 0.00 0.00 0.00 44 1012.5
20260506191825 8 184 6.4 17.7 0.00 0.00 0.00 43 1012.4
20260506191326 9 167 6.4 17.7 0.00 0.00 0.00 43 1012.4
20260506190835 9 152 6.4 14.5 0.00 0.00 0.00 42 1012.4
20260506190329 9 148 8.0 14.5 0.00 0.00 0.00 41 1012.5
20260506185830 9 183 6.4 16.1 0.00 0.00 0.00 40 1012.4
20260506185347 10 184 6.4 16.1 0.00 0.00 0.00 40 1012.3
20260506184826 10 172 3.2 20.9 0.00 0.00 0.00 39 1012.3
20260506184326 10 172 6.4 20.9 0.00 0.00 0.00 38 1012.2
20260506183847 10 156 8.0 16.1 0.00 0.00 0.00 37 1012.2
20260506183327 10 156 8.0 17.7 0.00 0.00 0.00 36 1012.1
20260506182835 10 150 9.7 17.7 0.00 0.00 0.00 36 1012.1
20260506182324 10 198 9.7 22.5 0.00 0.00 0.00 37 1012.1
20260506181824 10 140 11.3 22.5 0.00 0.00 0.00 37 1012.0
20260506181324 10 160 9.7 16.1 0.00 0.00 0.00 36 1012.0
20260506180826 10 171 9.7 16.1 0.00 0.00 0.00 36 1012.0
20260506180327 11 152 8.0 19.3 0.00 0.00 0.00 36 1012.0
20260506175827 11 145 9.7 19.3 0.00 0.00 0.00 36 1012.0
20260506175348 11 143 9.7 16.1 0.00 0.00 0.00 37 1011.9
20260506174847 11 102 9.7 16.1 0.00 0.00 0.00 35 1011.8
20260506174327 11 122 8.0 17.7 0.00 0.00 0.00 34 1011.8
20260506173828 11 199 9.7 24.1 0.00 0.00 0.00 33 1011.7
20260506173328 12 196 9.7 27.4 0.00 0.00 0.00 33 1011.7
20260506172829 12 169 11.3 29.0 0.00 0.00 0.00 32 1011.7
20260506172357 12 168 14.5 25.7 0.00 0.00 0.00 33 1011.6
20260506171825 12 154 12.9 25.7 0.00 0.00 0.00 32 1011.6
20260506171326 12 155 6.4 24.1 0.00 0.00 0.00 34 1011.5
20260506170827 12 126 12.9 32.2 0.00 0.00 0.00 32 1011.5
20260506170326 12 173 14.5 32.2 0.00 0.00 0.00 34 1011.7
20260506165826 12 122 8.0 16.1 0.00 0.00 0.00 34 1011.4
20260506165327 13 137 8.0 17.7 0.00 0.00 0.00 35 1011.4
20260506164836 13 136 9.7 17.7 0.00 0.00 0.00 34 1011.3
20260506164324 13 149 11.3 17.7 0.00 0.00 0.00 34 1011.3
20260506163825 13 192 9.7 24.1 0.00 0.00 0.00 35 1011.3
20260506163326 13 153 11.3 24.1 0.00 0.00 0.00 34 1011.3
20260506162826 13 121 8.0 17.7 0.00 0.00 0.00 36 1011.2
20260506162336 13 133 9.7 14.5 0.00 0.00 0.00 36 1011.3
20260506161825 13 133 4.8 11.3 0.00 0.00 0.00 32 1011.3
20260506161326 13 75 6.4 12.9 0.00 0.00 0.00 36 1011.2
20260506160826 13 63 6.4 12.9 0.00 0.00 0.00 36 1011.2
20260506160327 13 118 6.4 11.3 0.00 0.00 0.00 35 1011.3
20260506155827 13 88 3.2 12.9 0.00 0.00 0.00 35 1011.3
20260506155327 13 112 6.4 16.1 0.00 0.00 0.00 33 1011.4
20260506154828 13 93 9.7 12.9 0.00 0.00 0.00 32 1011.4
20260506154348 13 169 3.2 12.9 0.00 0.00 0.00 29 1011.5
20260506153857 14 138 3.2 12.9 0.00 0.00 0.00 32 1011.5
20260506153325 14 36 3.2 11.3 0.00 0.00 0.00 28 1011.4
20260506152825 14 90 4.8 9.7 0.00 0.00 0.00 35 1011.5
20260506152326 13 16 3.2 6.4 0.00 0.00 0.00 29 1011.6
20260506151826 13 142 3.2 6.4 0.00 0.00 0.00 31 1011.6
20260506151327 13 177 3.2 8.0 0.00 0.00 0.00 28 1011.5
20260506150828 13 222 1.6 16.1 0.00 0.00 0.00 27 1011.5
20260506150329 14 112 6.4 16.1 0.00 0.00 0.00 29 1011.6
20260506145829 14 252 3.2 12.9 0.00 0.00 0.00 28 1011.5
20260506145330 14 179 4.8 16.1 0.00 0.00 0.00 28 1011.6
20260506144830 14 160 8.0 16.1 0.00 0.00 0.00 28 1011.7
20260506144330 14 178 8.0 12.9 0.00 0.00 0.00 28 1011.6
20260506143831 14 169 1.6 9.7 0.00 0.00 0.00 29 1011.6
20260506143352 14 193 3.2 8.0 0.00 0.00 0.00 27 1011.6
20260506142831 14 147 1.6 19.3 0.00 0.00 0.00 28 1011.7
20260506142352 14 90 4.8 25.7 0.00 0.00 0.00 32 1011.9
20260506141852 14 114 3.2 16.1 0.00 0.00 0.00 28 1011.7
20260506141331 14 172 8.0 14.5 0.00 0.00 0.00 28 1011.8
20260506140839 14 113 6.4 17.7 0.00 0.00 0.00 32 1011.8
20260506140328 14 165 8.0 17.7 0.00 0.00 0.00 30 1011.8
20260506135836 14 55 6.4 17.7 0.00 0.00 0.00 31 1011.9
20260506135324 14 126 9.7 20.9 0.00 0.00 0.00 31 1011.8
20260506134832 14 137 12.9 20.9 0.00 0.00 0.00 31 1011.9
20260506134339 14 77 9.7 19.3 0.00 0.00 0.00 36 1012.0
20260506133828 13 72 11.3 19.3 0.00 0.00 0.00 32 1012.0
20260506133329 14 126 11.3 25.7 0.00 0.00 0.00 31 1012.1
20260506132830 14 118 14.5 25.7 0.00 0.00 0.00 30 1012.0
20260506132330 14 92 8.0 19.3 0.00 0.00 0.00 30 1012.0
20260506131851 14 103 6.4 19.3 0.00 0.00 0.00 31 1012.1
20260506131350 14 115 11.3 19.3 0.00 0.00 0.00 30 1012.1
20260506130829 14 110 11.3 20.9 0.00 0.00 0.00 32 1012.2
20260506130329 14 114 16.1 20.9 0.00 0.00 0.00 31 1012.2
20260506125829 14 133 6.4 20.9 0.00 0.00 0.00 32 1012.3
20260506125331 14 107 12.9 19.3 0.00 0.00 0.00 31 1012.3
20260506124830 14 109 8.0 19.3 0.00 0.00 0.00 33 1012.3
20260506124326 14 126 12.9 20.9 0.00 0.00 0.00 30 1012.4
20260506123826 14 119 6.4 20.9 0.00 0.00 0.00 29 1012.4
20260506123327 14 63 9.7 20.9 0.00 0.00 0.00 31 1012.4
20260506122827 14 113 8.0 16.1 0.00 0.00 0.00 31 1012.5
20260506122348 14 360 6.4 11.3 0.00 0.00 0.00 29 1012.5
20260506121827 13 64 4.8 14.5 0.00 0.00 0.00 34 1012.5
20260506121328 13 111 8.0 20.9 0.00 0.00 0.00 32 1012.6
20260506120828 13 88 9.7 20.9 0.00 0.00 0.00 32 1012.6
20260506120336 13 103 11.3 19.3 0.00 0.00 0.00 30 1012.6
20260506115824 14 142 9.7 19.3 0.00 0.00 0.00 28 1012.6
20260506115325 14 138 12.9 19.3 0.00 0.00 0.00 33 1012.6
20260506114824 14 68 8.0 24.1 0.00 0.00 0.00 32 1012.7
20260506114326 14 144 11.3 24.1 0.00 0.00 0.00 31 1012.6
20260506113847 14 167 9.7 16.1 0.00 0.00 0.00 32 1012.7
20260506113327 14 163 6.4 11.3 0.00 0.00 0.00 32 1012.7
20260506112828 14 145 4.8 16.1 0.00 0.00 0.00 30 1012.7
20260506112329 15 136 11.3 16.1 0.00 0.00 0.00 30 1012.7
20260506111830 15 105 9.7 19.3 0.00 0.00 0.00 31 1012.7
20260506111332 15 90 9.7 19.3 0.00 0.00 0.00 30 1012.7
20260506110851 15 74 4.8 14.5 0.00 0.00 0.00 31 1012.7
20260506110330 14 80 4.8 22.5 0.00 0.00 0.00 30 1012.9
20260506105831 14 64 6.4 22.5 0.00 0.00 0.00 30 1012.9
20260506105352 15 123 6.4 19.3 0.00 0.00 0.00 31 1012.9
20260506104851 14 117 11.3 16.1 0.00 0.00 0.00 30 1012.9
20260506104332 14 49 3.2 16.1 0.00 0.00 0.00 31 1012.9
20260506103832 15 29 4.8 17.7 0.00 0.00 0.00 28 1013.0
20260506103331 16 93 4.8 17.7 0.00 0.00 0.00 29 1013.1
20260506102831 16 140 4.8 12.9 0.00 0.00 0.00 30 1013.1
20260506102400 16 49 3.2 9.7 0.00 0.00 0.00 27 1013.2
20260506101827 16 302 4.8 11.3 0.00 0.00 0.00 28 1013.2
20260506101356 15 69 4.8 11.3 0.00 0.00 0.00 30 1013.2
20260506100845 15 221 1.6 8.0 0.00 0.00 0.00 25 1013.2
20260506100332 15 304 4.8 12.9 0.00 0.00 0.00 26 1013.2
20260506095900 14 276 4.8 12.9 0.00 0.00 0.00 28 1013.3
20260506095328 14 160 6.4 12.9 0.00 0.00 0.00 28 1013.3
20260506094836 14 144 3.2 16.1 0.00 0.00 0.00 32 1013.3
20260506094324 14 205 6.4 16.1 0.00 0.00 0.00 31 1013.3
20260506093852 15 111 9.7 16.1 0.00 0.00 0.00 27 1013.3
20260506093331 15 98 4.8 11.3 0.00 0.00 0.00 27 1013.3
20260506092831 15 331 1.6 14.5 0.00 0.00 0.00 28 1013.3
20260506092330 14 291 3.2 14.5 0.00 0.00 0.00 29 1013.4
20260506091838 13 299 1.6 12.9 0.00 0.00 0.00 29 1013.4
20260506091346 13 302 4.8 12.9 0.00 0.00 0.00 31 1013.4
20260506090850 13 295 6.4 12.9 0.00 0.00 0.00 34 1013.5
20260506090356 13 249 1.6 9.7 0.00 0.00 0.00 32 1013.5
20260506085824 13 268 1.6 9.7 0.00 0.00 0.00 31 1013.5
20260506085324 13 306 3.2 9.7 0.00 0.00 0.00 29 1013.4